| time (UTC) | temp F | wind direction | speed MPH | gust MPH | rain 1hr in | rain 24hr in | rain mn in | humidity % | barometer mb |
| 20260506164517 | 83 | 110 | 2.0 | 3.0 | 0.00 | 0.00 | 0.00 | 65 | 999.4 |
| 20260506163013 | 82 | 221 | 0.0 | 4.0 | 0.00 | 0.00 | 0.00 | 66 | 1001.4 |
| 20260506161510 | 82 | 167 | 1.0 | 4.0 | 0.00 | 0.00 | 0.00 | 67 | 1006.9 |
| 20260506160039 | 81 | 193 | 1.0 | 4.0 | 0.00 | 0.00 | 0.00 | 67 | 1005.8 |
| 20260506154537 | 80 | 177 | 1.0 | 4.0 | 0.00 | 0.00 | 0.00 | 68 | 1007.0 |
| 20260506153102 | 80 | 128 | 1.0 | 3.0 | 0.00 | 0.00 | 0.00 | 67 | 1005.5 |
| 20260506151556 | 80 | 139 | 0.0 | 3.0 | 0.00 | 0.00 | 0.00 | 67 | 1006.8 |
| 20260506150051 | 80 | 154 | 1.0 | 3.0 | 0.00 | 0.00 | 0.00 | 65 | 1006.7 |
| 20260506144549 | 80 | 196 | 0.0 | 3.0 | 0.00 | 0.00 | 0.00 | 62 | 1006.6 |
| 20260506143045 | 78 | 254 | 0.0 | 0.0 | 0.00 | 0.00 | 0.00 | 63 | 1005.4 |
| 20260506141559 | 77 | 254 | 0.0 | 3.0 | 0.00 | 0.00 | 0.00 | 63 | 1005.2 |
| 20260506140040 | 76 | 217 | 1.0 | 3.0 | 0.00 | 0.00 | 0.00 | 65 | 1006.1 |
| 20260506134532 | 75 | 52 | 0.0 | 0.0 | 0.00 | 0.00 | 0.00 | 71 | 1006.0 |
| 20260506133027 | 0 | 0.0 | 0.0 | 0.00 | 0.00 | 0.00 | 1005.9 | ||
| 20260506131525 | 0 | 0.0 | 0.0 | 0.00 | 0.00 | 0.00 | 1005.6 | ||
| 20260506130050 | 0 | 0.0 | 0.0 | 0.00 | 0.00 | 0.00 | 1005.6 | ||
| 20260506124546 | 0 | 0.0 | 0.0 | 0.00 | 0.00 | 0.00 | 1005.5 | ||
| 20260506123043 | 74 | 278 | 0.0 | 2.0 | 0.00 | 0.00 | 0.00 | 62 | 1005.4 |
| 20260506121543 | 74 | 278 | 0.0 | 2.0 | 0.00 | 0.00 | 0.00 | 62 | 1005.0 |
| 20260506120105 | 74 | 278 | 0.0 | 0.0 | 0.00 | 0.00 | 0.00 | 60 | 1004.8 |
| 20260506114541 | 74 | 278 | 0.0 | 0.0 | 0.00 | 0.00 | 0.00 | 62 | 1004.7 |
| 20260506113036 | 73 | 278 | 0.0 | 0.0 | 0.00 | 0.00 | 0.00 | 62 | 1004.5 |
| 20260506111539 | 74 | 278 | 2.0 | 4.0 | 0.00 | 0.00 | 0.00 | 61 | 1004.6 |
| 20260506110035 | 74 | 278 | 2.0 | 6.0 | 0.00 | 0.00 | 0.00 | 62 | 1004.5 |
| 20260506104534 | 74 | 307 | 1.0 | 6.0 | 0.00 | 0.00 | 0.00 | 64 | 1004.5 |
| 20260506103035 | 75 | 319 | 1.0 | 3.0 | 0.00 | 0.00 | 0.00 | 64 | 1004.5 |
| 20260506101532 | 76 | 324 | 0.0 | 4.0 | 0.00 | 0.00 | 0.00 | 64 | 1004.2 |
| 20260506100034 | 76 | 327 | 2.0 | 4.0 | 0.00 | 0.00 | 0.00 | 62 | 1004.5 |
| 20260506094535 | 76 | 325 | 1.0 | 5.0 | 0.00 | 0.00 | 0.00 | 58 | 1004.6 |
| 20260506093042 | 76 | 321 | 2.0 | 5.0 | 0.00 | 0.00 | 0.00 | 54 | 1004.6 |
| 20260506091528 | 76 | 316 | 2.0 | 4.0 | 0.00 | 0.00 | 0.00 | 54 | 1004.7 |
| 20260506090026 | 76 | 314 | 1.0 | 5.0 | 0.00 | 0.00 | 0.00 | 57 | 1004.6 |
| 20260506084525 | 75 | 275 | 1.0 | 5.0 | 0.00 | 0.00 | 0.00 | 59 | 1004.1 |
| 20260506083022 | 74 | 275 | 0.0 | 3.0 | 0.00 | 0.00 | 0.00 | 61 | 1004.1 |
| 20260506081521 | 73 | 275 | 0.0 | 2.0 | 0.00 | 0.00 | 0.00 | 64 | 1003.6 |
| 20260506073014 | 74 | 274 | 2.0 | 5.0 | 0.00 | 0.00 | 0.00 | 67 | 1004.5 |
| 20260506071512 | 75 | 274 | 0.0 | 0.0 | 0.00 | 0.00 | 0.00 | 68 | 1005.0 |
| 20260506061506 | 76 | 275 | 0.0 | 0.0 | 0.00 | 0.00 | 0.00 | 66 | 1004.1 |
| 20260506044501 | 76 | 273 | 0.0 | 2.0 | 0.00 | 0.00 | 0.00 | 67 | 1003.4 |
| 20260506043100 | 76 | 273 | 1.0 | 3.0 | 0.00 | 0.00 | 0.00 | 66 | 1001.4 |
| 20260506041559 | 76 | 273 | 2.0 | 6.0 | 0.00 | 0.00 | 0.00 | 66 | 984.7 |
| 20260506040100 | 75 | 263 | 1.0 | 3.0 | 0.00 | 0.00 | 0.00 | 65 | 989.0 |
| 20260506034555 | 75 | 256 | 3.0 | 6.0 | 0.00 | 0.00 | 0.00 | 66 | 1004.8 |
| 20260506033055 | 75 | 250 | 1.0 | 4.0 | 0.00 | 0.00 | 0.00 | 67 | 1004.8 |
| 20260506031600 | 76 | 167 | 0.0 | 0.0 | 0.00 | 0.00 | 0.00 | 70 | 1004.8 |
| 20260506030110 | 76 | 167 | 0.0 | 3.0 | 0.00 | 0.00 | 0.00 | 70 | 1000.2 |
| 20260506024551 | 77 | 167 | 0.0 | 1.0 | 0.00 | 0.00 | 0.00 | 69 | 993.6 |
| 20260506023051 | 77 | 167 | 0.0 | 2.0 | 0.00 | 0.00 | 0.00 | 68 | 989.5 |
| 20260506021549 | 77 | 158 | 0.0 | 3.0 | 0.00 | 0.00 | 0.00 | 67 | 989.8 |
| 20260506020048 | 78 | 155 | 0.0 | 2.0 | 0.00 | 0.00 | 0.00 | 65 | 989.8 |
| 20260506014553 | 79 | 155 | 0.0 | 2.0 | 0.00 | 0.00 | 0.00 | 64 | 989.8 |
| 20260506013050 | 79 | 122 | 0.0 | 3.0 | 0.00 | 0.00 | 0.00 | 63 | 993.6 |
| 20260506011552 | 80 | 115 | 1.0 | 4.0 | 0.00 | 0.00 | 0.00 | 62 | 993.6 |
| 20260506010045 | 80 | 88 | 1.0 | 3.0 | 0.00 | 0.00 | 0.00 | 59 | 993.6 |
| 20260506004620 | 80 | 121 | 1.0 | 3.0 | 0.00 | 0.00 | 0.00 | 59 | 992.6 |
| 20260506003044 | 81 | 91 | 2.0 | 3.0 | 0.00 | 0.00 | 0.00 | 58 | 984.3 |
| 20260506001515 | 82 | 118 | 2.0 | 4.0 | 0.00 | 0.00 | 0.00 | 53 | 979.3 |
| 20260506000012 | 83 | 93 | 2.0 | 4.0 | 0.00 | 0.00 | 0.00 | 50 | 995.9 |
| 20260505234520 | 84 | 87 | 2.0 | 4.0 | 0.00 | 0.00 | 0.00 | 52 | 995.9 |
| 20260505233016 | 84 | 148 | 1.0 | 5.0 | 0.00 | 0.00 | 0.00 | 51 | 988.9 |
| 20260505231512 | 84 | 116 | 2.0 | 4.0 | 0.00 | 0.00 | 0.00 | 48 | 988.9 |
| 20260505230012 | 85 | 80 | 2.0 | 4.0 | 0.00 | 0.00 | 0.00 | 46 | 996.2 |
| 20260505224507 | 87 | 132 | 2.0 | 4.0 | 0.00 | 0.00 | 0.00 | 41 | 997.8 |
| 20260505223010 | 89 | 155 | 0.0 | 4.0 | 0.00 | 0.00 | 0.00 | 39 | 999.2 |
| 20260505221505 | 89 | 205 | 2.0 | 4.0 | 0.00 | 0.00 | 0.00 | 39 | 1004.3 |
| 20260505220009 | 88 | 213 | 2.0 | 4.0 | 0.00 | 0.00 | 0.00 | 39 | 1002.9 |
| 20260505214503 | 88 | 191 | 2.0 | 5.0 | 0.00 | 0.00 | 0.00 | 40 | 1003.2 |
| 20260505213002 | 88 | 218 | 2.0 | 6.0 | 0.00 | 0.00 | 0.00 | 40 | 1003.2 |
| 20260505211502 | 87 | 207 | 2.0 | 5.0 | 0.00 | 0.00 | 0.00 | 41 | 1004.6 |
| 20260505210003 | 88 | 322 | 3.0 | 6.0 | 0.00 | 0.00 | 0.00 | 42 | 1003.9 |
| 20260505204602 | 88 | 212 | 3.0 | 7.0 | 0.00 | 0.00 | 0.00 | 41 | 1005.2 |
| 20260505203104 | 88 | 201 | 3.0 | 7.0 | 0.00 | 0.00 | 0.00 | 38 | 1004.9 |
| 20260505201608 | 89 | 182 | 2.0 | 6.0 | 0.00 | 0.00 | 0.00 | 40 | 1005.4 |
| 20260505200104 | 88 | 258 | 1.0 | 6.0 | 0.00 | 0.00 | 0.00 | 40 | 1005.5 |
| 20260505194523 | 87 | 254 | 3.0 | 7.0 | 0.00 | 0.00 | 0.00 | 42 | 1003.5 |
| 20260505193023 | 87 | 255 | 2.0 | 5.0 | 0.00 | 0.00 | 0.00 | 42 | 1003.5 |
| 20260505191521 | 87 | 260 | 2.0 | 5.0 | 0.00 | 0.00 | 0.00 | 42 | 1004.6 |
| 20260505190018 | 86 | 262 | 3.0 | 7.0 | 0.00 | 0.00 | 0.00 | 42 | 998.2 |
| 20260505184524 | 86 | 261 | 3.0 | 9.0 | 0.00 | 0.00 | 0.00 | 43 | 1000.0 |
| 20260505183032 | 85 | 228 | 3.0 | 5.0 | 0.00 | 0.00 | 0.00 | 45 | 1001.3 |
| 20260505181507 | 84 | 199 | 2.0 | 7.0 | 0.00 | 0.00 | 0.00 | 45 | 1006.7 |
| 20260505180003 | 83 | 293 | 2.0 | 5.0 | 0.00 | 0.00 | 0.00 | 48 | 1001.3 |
| 20260505174601 | 82 | 286 | 2.0 | 7.0 | 0.00 | 0.00 | 0.00 | 54 | 1001.3 |
| 20260505173057 | 81 | 293 | 3.0 | 6.0 | 0.00 | 0.00 | 0.00 | 52 | 1004.8 |
| 20260505171552 | 81 | 300 | 3.0 | 6.0 | 0.00 | 0.00 | 0.00 | 55 | 1002.5 |
| 20260505170051 | 80 | 235 | 3.0 | 7.0 | 0.00 | 0.00 | 0.00 | 58 | 1002.5 |